Location: ?????
(42.2640°N, 43.4211°E)
Time: 14:53:44
(UTC+00:00)

CZ-4C R/B - Pass Details

Date: 07 August 2020
Orbit: 409 x 491 km, 97.7° (Epoch: 19 September)

Event Time Altitude Azimuth Distance (km) Brightness Sun altitude
Exits shadow 00:47:29 - 172° (S) 1,743 5.6 -13.3°
Reaches altitude 10° 00:48:04 10° 173° (S) 1,491 5.2 -13.2°
Maximum altitude 00:51:14 73° 258° (WSW) 448 2.7 -12.7°
Drops below altitude 10° 00:54:31 10° 344° (NNW) 1,539 5.9 -12.2°
Sets 00:56:34 0° 346° (NNW) 2,426 6.9 -11.9°
